Regional Weather Roundup
Issued by NWS

Home | Current Version | Previous Version | Graphics & Text | Print | Product List | Glossary On
Versions: 1 2 3 4 5 6 7 8 9 10 11 12 13 14 15 16 17 18 19 20 21 22 23 24 25 26 27 28
000
ASUS45 KBOU 250407
RWRCO

WEATHER ROUNDUP FOR COLORADO
NATIONAL WEATHER SERVICE DENVER/BOULDER CO
1000 PM MDT SAT JUN 24 2017

NOTE: "FAIR" INDICATES FEW OR NO CLOUDS BELOW 12000 FEET WITH NO
SIGNIFICANT WEATHER AND/OR OBSTRUCTIONS TO VISIBILITY.

COZ001>005-013-030-031-250500-
...NORTHWEST COLORADO...

CITY           SKY/WX    TMP DP  RH WIND       PRES   REMARKS
CRAIG          FAIR      55  34  45 CALM      30.30R
HAYDEN         FAIR      61  30  31 CALM      30.32R
MEEKER         FAIR      61  31  32 E5        30.29R
RABBIT EARS PA FAIR      46  27  46 NE7       30.59R
STEAMBOAT SPGS FAIR      58  36  44 CALM      30.34R
WALDEN         FAIR      50  36  57 NE8       30.46R
$$

COZ006>008-011-250500-
...WEST CENTRAL VALLEYS...

CITY           SKY/WX    TMP DP  RH WIND       PRES   REMARKS
GRAND JUNCTION FAIR      82  22  11 NE14G23   30.11R
MONTROSE       FAIR      72  31  22 W5        30.20R
EAGLE          FAIR      65  28  24 SE9       30.32
RIFLE          FAIR      73  25  16 W7        30.22R
DELTA          FAIR      80  22  12 N12       30.15R
NUCLA          FAIR      73  19  13 SW3       30.22R
$$

COZ017>023-064>068-250500-
...SOUTHWEST COLORADO...

CITY           SKY/WX    TMP DP  RH WIND       PRES   REMARKS
DURANGO        FAIR      65  18  16 N6        30.21R
CORTEZ         FAIR      64  22  20 E10       30.17R
PAGOSA SPRINGS FAIR      65  12  12 E3        30.30R
TELLURIDE      FAIR      64  20  19 CALM      30.47R
WOLF CREEK PAS FAIR      54  12  19 NW6       30.70R
$$

COZ009-010-012-014-032>034-037-058>063-250500-
...CENTRAL COLORADO...

CITY           SKY/WX    TMP DP  RH WIND       PRES   REMARKS
ASPEN          FAIR      53  30  41 S9        30.37R
BUENA VISTA    CLOUDY    60  45  57 SE5       30.46R
COPPER MTN     NOT AVBL
BERTHOUD PASS  HAZE      34  23  64 S9        30.71S VSB<1/4 WCI  26
COTTONWOOD PAS CLOUDY    55  43  62 E5        30.57R
GUNNISON       FAIR      61  34  36 VRB3      30.35R
KREMMLING      NOT AVBL
LEADVILLE      FAIR      51  40  65 SW8       30.53R
MONARCH PASS   FOG       43  41  93 NE26      30.74R VSB<1/4
SALIDA         MOCLDY    61  46  58 E7        30.50R
SUNLIGHT       FAIR      52  14  22 NW5       30.62S
WILKERSON PASS CLOUDY    43  37  81 E12       30.67S
$$

COZ069>075-250500-
...SAN LUIS VALLEY/SANGRE DE CRISTO MOUNTAINS...

CITY           SKY/WX    TMP DP  RH WIND       PRES   REMARKS
ALAMOSA        FAIR      59  45  59 E20G29    30.32R
DEL NORTE      FAIR      63  44  49 CALM      30.37R
LA VETA PASS   CLOUDY    45  43  93 NE18      30.68R
SAGUACHE       FAIR      64  37  36 N14       30.34R
$$

COZ035-036-038>040-250500-
...NORTHERN COLORADO FRONT RANGE...

CITY           SKY/WX    TMP DP  RH WIND       PRES   REMARKS
DENVER INTL AP MOCLDY    66  47  50 E20       30.34R
DMNS CITY PARK   N/A     66  47  50 E12G18    30.34R
AURORA         MOCLDY    63  48  59 NE14      30.36R
FRONT RANGE AP CLOUDY    64  48  55 E14G21    30.36R
ERIE MUNI ARPT CLOUDY    66  47  49 E5        30.34R
BOULDER MUN AP CLOUDY    64  46  52 CALM      30.35R
CENTENNIAL     FAIR      63  47  55 NE12G20   30.35R
BROOMFIELD     CLOUDY    64  46  52 E12       30.37R
FORT COLLINS   CLOUDY    67  46  47 E9        30.35R
LONGMONT       CLOUDY    69  47  45 E9        30.36R
$$

COZ041-046-047-076>085-087-088-250500-
...PIKES PEAK/PALMER DIVIDE AND SOUTHERN FOOTHILLS...

CITY           SKY/WX    TMP DP  RH WIND       PRES   REMARKS
COLO. SPRINGS  MOCLDY    64  46  52 SE7       30.39R
A. F. ACADEMY  CLOUDY    64  46  51 S6        30.39R
SCHRIEVER AFB  MOCLDY    61  45  55 E8        30.39
CHEYENNE MTN   MOCLDY    61  45  56 S8        30.37R
ELLICOTT       CLOUDY   N/A N/A N/A SE9       30.37R
FALCON           N/A     60  44  55 S6        30.43R
FORT CARSON    CLOUDY    65  47  51 S6        30.36R
LIMON          MOCLDY    57  45  64 SE6       30.35R
MONUMENT HILL  FAIR      52  43  71 S7        30.43R
CANON CITY     CLOUDY    70  54  56 E3        30.33R
WALSENBURG     FAIR      63  50  63 N10       30.35R
TRINIDAD       CLOUDY    68  48  48 W17       30.31R
$$

COZ042>045-048>051-090-091-250500-
...NORTHEAST COLORADO...

CITY           SKY/WX    TMP DP  RH WIND       PRES   REMARKS
GREELEY ARPT   FAIR      66  48  52 E9        30.34R
AKRON          CLOUDY    62  47  57 E9        30.35R
BURLINGTON     CLOUDY    65  53  65 E10       30.32R
WRAY           FAIR      61  46  59 E6        30.31R
YUMA           CLOUDY    59  48  67 E3        30.33R
STERLING       FAIR      61  50  67 SE3       30.31R
HOLYOKE        NOT AVBL
FORT MORGAN    CLOUDY    61  50  66 E6        30.34R
$$

COZ086-089-092>099-250500-
...SOUTHEAST COLORADO...

CITY           SKY/WX    TMP DP  RH WIND       PRES   REMARKS
PUEBLO         CLOUDY    70  48  45 E7        30.29R
LA JUNTA       FAIR      68  52  56 E13       30.27R
LAMAR          FAIR      69  52  54 SE13      30.26R
SPRINGFIELD      N/A     64  54  69 S10       30.31R
$$




USA.gov is the U.S. government's official web portal to all federal, state and local government web resources and services.